Powrót do katalogu

YAOGAN-39 01C

AktywnyMilitariaVLEO
NORAD 57731·PAYLOAD·🇨🇳 China

Wystrzelony Aug 31, 2023 z Xichang Satellite Launch Center

Loading…

Następne Przeloty (najbliższe 24 godziny)

TLE

ŚwieżeSource: Space-Track

Epoka: Sep 14, 2026, 13:58 UTC

1 57731U 23130E   26257.58239631  .00004487  00000-0  22397-3 0  9990
2 57731  34.9937 315.3083 0009702  38.0663 322.0734 15.16889984169047

Śledź YAOGAN-39 01C w czasie rzeczywistym z AllMySat

Download on the App Store